Flag for Paraguay Weather past 2 weeks in Ciudad del Este, Paraguay

Now
59 °F

Passing clouds.


Feels Like: 59 °F
Forecast: 50 / 66 °F
Wind: 2 mph from Southwest

Location: Foz Do Iguacu Aeroporto

Current Time: May 28, 2015 at 9:13:37 PM

Latest Report: May 28, 2015 at 9:00 PM


Visibility: N/A

Pressure: 30.07 "Hg

Humidity: 94%

Dew point: 57 °F

Location of Ciudad del EsteLocation

Historic Weather in Ciudad del Este — Graph

°F

Ciudad del Este temperature yesterday

Maximum temperature yesterday: 68 °F (at 12:00 AM)
Minimum temperature yesterday: 61 °F (at 9:00 PM)
Average temperature yesterday: 66 °F

Past Weeks' High & Low Weather Summary

 TemperatureHumidityPressure
High86 °F (May 23, 1:00 PM)100% (May 14, 9:00 PM)30.21 "Hg (May 14, 9:00 PM)
Low36 °F (May 24, 3:00 PM)52% (May 23, 1:00 PM)29.83 "Hg (May 23, 6:00 PM)
Average68 °F89%30.04 "Hg
* Reported May 13 8:00 PM — May 28 8:00 PM, Ciudad del Este, Weather by CustomWeather, © 2015

Note: Actual official high and low records may vary slightly from our data, if they occured in-between our weather recording intervals... More about our weather records

Advertising

Ciudad del Este weather history for previous 24 hours

 ConditionsComfort  
Time TempWeatherWind HumidityBarometerVisibility
8:00 PM
Thu, May 28
59 °FPassing clouds.No wind94%30.07 "HgN/A
7:00 PM59 °FPassing clouds.No wind94%30.07 "HgN/A
6:00 PM59 °FPassing clouds.No wind94%30.07 "HgN/A
5:00 PM61 °FPassing clouds.2 mph88%30.04 "HgN/A
4:00 PM61 °FOvercast.2 mph88%30.04 "HgN/A
3:00 PM61 °FOvercast.2 mph88%30.07 "HgN/A
2:00 PM61 °FOvercast.3 mph83%30.07 "HgN/A
1:00 PM61 °FOvercast.3 mph88%30.07 "HgN/A
12:00 PM61 °FPartly sunny.7 mph83%30.09 "HgN/A
11:00 AM59 °FPartly sunny.5 mph88%30.12 "HgN/A
10:00 AM59 °FPartly sunny.6 mph88%30.12 "HgN/A
9:00 AM57 °FPartly sunny.6 mph94%30.12 "HgN/A
8:00 AM57 °FBroken clouds.5 mph94%30.12 "HgN/A
7:00 AM57 °FBroken clouds.2 mph94%30.09 "HgN/A
6:00 AM57 °FBroken clouds.2 mph100%30.09 "HgN/A
5:00 AM57 °FPartly cloudy.3 mph94%30.07 "HgN/A
4:00 AM57 °FPassing clouds.3 mph94%30.07 "HgN/A
3:00 AM55 °FPassing clouds.No wind100%30.04 "HgN/A
2:00 AM55 °FPassing clouds.3 mph100%30.04 "HgN/A
1:00 AM57 °FPassing clouds.5 mph94%30.04 "HgN/A
12:00 AM57 °FPassing clouds.5 mph100%30.04 "HgN/A
11:00 PM
Wed, May 27
61 °FPassing clouds.5 mph94%30.04 "HgN/A
10:00 PM61 °FPassing clouds.3 mph100%30.04 "HgN/A
9:00 PM61 °FPartly cloudy.3 mph100%30.01 "HgN/A
Weather by CustomWeather, © 2015

See weather overviewHow to use our weather pages